Weather History for Peru, IL

Change the Weather History Date:

Monday, December 24, 2012

  Actual Average Record
Temperature  
Mean Temperature 28 °F -  
Max Temperature 30 °F 31 °F 60 °F (1982)
Min Temperature 26 °F 17 °F -19 °F (1983)
Degree Days  
Heating Degree Days 37    
Moisture  
Dew Point 26 °F    
Average Humidity 89    
Maximum Humidity 94    
Minimum Humidity 86    
Precipitation  
Precipitation 0.00 in - - ()
Sea Level Pressure  
Sea Level Pressure 29.95 in    
Wind  
Wind Speed 9 mph (NNW)    
Max Wind Speed 15 mph    
Max Gust Speed 18 mph    
Visibility 8 miles    
Events      
Averages and records for this station are not official NWS values.
T = Trace of Precipitation, MM = Missing Value Source: NWS Daily Summary

Daily Weather History Graph

Daily Weather History Graph

Search for Another Location

Airport:

Trip Planner

Search our weather history database for the weather conditions in past years. The results will help you decide how hot, cold, wet, or windy it might be!

Date:

Astronomy

Dec. 24, 2012 Rise Set
Actual Time 7:20 AM CST 4:32 PM CST
Civil Twilight 6:49 AM CST 5:03 PM CST
Nautical Twilight 6:14 AM CST 5:38 PM CST
Astronomical Twilight 5:40 AM CST 6:12 PM CST
Moon 2:00 PM CST (12/24) 3:58 AM CST (12/24)
Length of Visible Light 10h 14m
Length of Day
9h 11m
Waxing Gibbous, 88% of the Moon is Illuminated
Dec 24
Waxing Gibbous
Dec 28
Full
Jan 4
Last Quarter
Jan 11
New
Jan 18
First Quarter

Hourly Weather History & Observations

Time (CST) Temp. Windchill Dew Point Humidity Pressure Visibility Wind Dir Wind Speed Gust Speed Precip Events Conditions
12:15 AM 28.9 °F 20.4 °F 26.4 °F 90% 29.93 in 10.0 mi ENE 9.2 mph - N/A   Overcast
12:35 AM 28.9 °F 20.4 °F 26.4 °F 90% 29.92 in 7.0 mi ENE 9.2 mph - N/A   Overcast
12:55 AM 28.4 °F 19.7 °F 26.1 °F 91% 29.90 in 7.0 mi NE 9.2 mph - N/A   Mostly Cloudy
1:15 AM 28.4 °F 20.4 °F 26.2 °F 92% 29.89 in 7.0 mi ENE 8.1 mph - N/A   Clear
1:35 AM 28.9 °F 21.1 °F 26.6 °F 91% 29.88 in 7.0 mi East 8.1 mph - N/A   Clear
1:55 AM 28.8 °F 22.6 °F 26.6 °F 92% 29.88 in 7.0 mi East 5.8 mph - N/A   Clear
2:15 AM 28.8 °F 20.9 °F 26.6 °F 92% 29.88 in 7.0 mi ENE 8.1 mph - N/A   Clear
2:35 AM 28.9 °F 23.9 °F 26.6 °F 91% 29.88 in 7.0 mi East 4.6 mph - N/A   Clear
2:55 AM 28.4 °F 23.3 °F 26.4 °F 92% 29.87 in 7.0 mi East 4.6 mph - N/A   Clear
3:15 AM 28.2 °F 23.1 °F 26.2 °F 92% 29.86 in 7.0 mi East 4.6 mph - N/A   Clear
3:35 AM 28.2 °F 22.0 °F 26.4 °F 93% 29.85 in 5.0 mi ENE 5.8 mph - N/A   Clear
3:55 AM 28.4 °F 22.2 °F 26.6 °F 93% 29.87 in 7.0 mi North 5.8 mph - N/A   Clear
4:15 AM 27.9 °F 20.6 °F 26.2 °F 94% 29.88 in 7.0 mi North 6.9 mph - N/A   Mostly Cloudy
4:35 AM 27.5 °F 19.3 °F 25.7 °F 93% 29.87 in 7.0 mi North 8.1 mph - N/A   Overcast
4:55 AM 28.4 °F 20.4 °F 26.4 °F 92% 29.87 in 7.0 mi North 8.1 mph - N/A   Overcast
5:15 AM 28.9 °F 21.1 °F 26.6 °F 91% 29.87 in 7.0 mi North 8.1 mph - N/A   Overcast
5:35 AM 29.3 °F 20.8 °F 27.0 °F 91% 29.87 in 7.0 mi North 9.2 mph - N/A   Overcast
5:55 AM 28.8 °F 19.5 °F 26.4 °F 91% 29.87 in 7.0 mi North 10.4 mph - N/A   Overcast
6:15 AM 28.4 °F 19.1 °F 26.1 °F 91% 29.87 in 7.0 mi North 10.4 mph - N/A   Overcast
6:35 AM 28.4 °F 18.5 °F 26.6 °F 93% 29.87 in 7.0 mi North 11.5 mph - N/A   Overcast
6:55 AM 28.4 °F 19.7 °F 25.7 °F 90% 29.88 in 10.0 mi North 9.2 mph - N/A   Overcast
7:15 AM 28.8 °F 20.2 °F 25.7 °F 88% 29.88 in 10.0 mi NNE 9.2 mph - N/A   Overcast
7:35 AM 28.8 °F 20.2 °F 25.7 °F 88% 29.88 in 10.0 mi North 9.2 mph - N/A   Overcast
7:55 AM 28.8 °F 20.2 °F 25.7 °F 88% 29.89 in 10.0 mi North 9.2 mph - N/A   Overcast
8:15 AM 28.4 °F 19.7 °F 25.7 °F 90% 29.89 in 10.0 mi North 9.2 mph - N/A   Overcast
8:35 AM 28.6 °F 20.7 °F 25.7 °F 89% 29.89 in 10.0 mi North 8.1 mph - N/A   Overcast
8:55 AM 28.9 °F 21.9 °F 25.7 °F 88% 29.90 in 10.0 mi North 6.9 mph - N/A   Overcast
9:15 AM 28.9 °F 21.9 °F 25.7 °F 88% 29.91 in 10.0 mi NNW 6.9 mph - N/A   Overcast
9:35 AM 28.8 °F 20.9 °F 25.5 °F 88% 29.91 in 10.0 mi North 8.1 mph - N/A   Overcast
9:55 AM 28.4 °F 21.2 °F 25.3 °F 88% 29.92 in 10.0 mi NNW 6.9 mph - N/A   Overcast
10:15 AM 28.6 °F 21.5 °F 25.2 °F 87% 29.92 in 10.0 mi NNW 6.9 mph - N/A   Overcast
10:35 AM 28.9 °F 21.1 °F 25.5 °F 87% 29.92 in 7.0 mi NNW 8.1 mph - N/A   Overcast
10:55 AM 28.9 °F 21.1 °F 25.7 °F 88% 29.91 in 7.0 mi NW 8.1 mph - N/A   Overcast
11:15 AM 28.9 °F 20.4 °F 25.7 °F 88% 29.90 in 7.0 mi NNW 9.2 mph - N/A   Overcast
11:35 AM 28.9 °F 21.1 °F 25.5 °F 87% 29.88 in 10.0 mi NNW 8.1 mph - N/A   Overcast
11:55 AM 29.1 °F 20.6 °F 25.5 °F 86% 29.89 in 10.0 mi NNW 9.2 mph - N/A   Overcast
12:15 PM 29.3 °F 20.8 °F 25.7 °F 86% 29.89 in 10.0 mi NNW 9.2 mph - N/A   Overcast
12:35 PM 29.3 °F 21.5 °F 25.7 °F 86% 29.87 in 10.0 mi North 8.1 mph - N/A   Overcast
12:55 PM 30.2 °F 21.3 °F 26.6 °F 86% 29.87 in 10.0 mi NNW 10.4 mph - N/A   Overcast
1:15 PM 30.4 °F 22.2 °F 26.6 °F 86% 29.89 in 10.0 mi NW 9.2 mph - N/A   Overcast
1:35 PM 30.9 °F 23.5 °F 27.1 °F 86% 29.89 in 10.0 mi NW 8.1 mph - N/A   Overcast
1:55 PM 30.9 °F 23.5 °F 27.1 °F 86% 29.90 in 10.0 mi WNW 8.1 mph - N/A   Overcast
2:15 PM 30.4 °F 21.0 °F 26.6 °F 86% 29.91 in 10.0 mi West 11.5 mph - N/A   Overcast
2:35 PM 30.9 °F 22.8 °F 27.1 °F 86% 29.91 in 10.0 mi WNW 9.2 mph - N/A   Overcast
2:55 PM 30.2 °F 19.3 °F 27.0 °F 88% 29.92 in 10.0 mi WNW 15.0 mph 18.4 mph N/A   Overcast
3:15 PM 30.0 °F 19.1 °F 27.0 °F 88% 29.93 in 10.0 mi NW 15.0 mph - N/A   Overcast
3:35 PM 30.0 °F 20.0 °F 27.1 °F 89% 29.94 in 7.0 mi WNW 12.7 mph - N/A   Overcast
3:55 PM 29.7 °F 19.6 °F 26.6 °F 88% 29.96 in 5.0 mi WNW 12.7 mph - N/A   Overcast
4:15 PM 29.3 °F 19.1 °F 26.6 °F 90% 29.96 in 5.0 mi WNW 12.7 mph - N/A   Overcast
4:35 PM 28.9 °F 19.2 °F 26.4 °F 90% 29.97 in 5.0 mi WNW 11.5 mph - N/A   Overcast
4:55 PM 28.2 °F 18.9 °F 25.7 °F 90% 29.98 in 5.0 mi WNW 10.4 mph - N/A   Overcast
5:15 PM 27.9 °F 17.3 °F 25.3 °F 90% 29.99 in 5.0 mi WNW 12.7 mph - N/A   Overcast
5:35 PM 27.5 °F 17.4 °F 25.2 °F 91% 30.00 in 5.0 mi WNW 11.5 mph - N/A   Overcast
5:55 PM 27.3 °F 17.1 °F 24.8 °F 90% 30.01 in 5.0 mi WNW 11.5 mph - N/A   Overcast
6:15 PM 27.1 °F 16.9 °F 24.8 °F 91% 30.01 in 4.0 mi WNW 11.5 mph - N/A   Overcast
6:35 PM 26.6 °F 16.2 °F 24.4 °F 92% 30.02 in 5.0 mi WNW 11.5 mph - N/A   Overcast
6:55 PM 26.6 °F 16.8 °F 24.3 °F 91% 30.03 in 5.0 mi WNW 10.4 mph - N/A   Overcast
7:15 PM 26.6 °F 17.5 °F 24.4 °F 92% 30.04 in 5.0 mi WNW 9.2 mph - N/A   Overcast
7:35 PM 26.8 °F 17.1 °F 24.4 °F 91% 30.06 in 5.0 mi WNW 10.4 mph - N/A   Overcast
7:55 PM 27.1 °F 18.2 °F 24.8 °F 91% 30.07 in 5.0 mi WNW 9.2 mph - N/A   Overcast
8:15 PM 27.1 °F 18.2 °F 24.8 °F 91% 30.07 in 5.0 mi WNW 9.2 mph - N/A   Overcast
8:35 PM 27.1 °F 19.7 °F 24.8 °F 91% 30.07 in 4.0 mi WNW 6.9 mph - N/A   Overcast
8:55 PM 27.3 °F 19.9 °F 25.3 °F 92% 30.08 in 4.0 mi NW 6.9 mph - N/A   Overcast
9:15 PM 27.5 °F 22.2 °F 25.5 °F 92% 30.08 in 5.0 mi WNW 4.6 mph - N/A   Overcast
9:35 PM 27.5 °F 23.6 °F 25.5 °F 92% 30.09 in 5.0 mi NNW 3.5 mph - N/A   Overcast
9:55 PM 28.0 °F 21.7 °F 25.0 °F 88% 30.10 in 10.0 mi NNW 5.8 mph - N/A   Overcast
10:15 PM 28.0 °F 20.0 °F 24.8 °F 88% 30.11 in 10.0 mi NNW 8.1 mph - N/A   Overcast
10:35 PM 27.5 °F 16.8 °F 24.3 °F 88% 30.10 in 10.0 mi NNW 12.7 mph - N/A   Overcast
10:55 PM 27.5 °F 18.6 °F 23.9 °F 86% 30.10 in 10.0 mi NNW 9.2 mph - N/A   Overcast
11:15 PM 27.5 °F 17.4 °F 23.9 °F 86% 30.11 in 10.0 mi North 11.5 mph - N/A   Overcast
11:35 PM 27.3 °F 16.6 °F 23.9 °F 87% 30.11 in 10.0 mi NNW 12.7 mph - N/A   Overcast
11:55 PM 27.1 °F 18.2 °F 23.7 °F 87% 30.12 in 10.0 mi North 9.2 mph - N/A   Overcast